TimeIST,TemperatureF,Dew PointF,Humidity,Sea Level PressureIn,VisibilityMPH,Wind Direction,Wind SpeedMPH,Gust SpeedMPH,PrecipitationIn,Events,Conditions,WindDirDegrees,DateUTC
12:00 AM,78.8,50.0,36,29.77,2.5,East,10.4,-,N/A,,Haze,80,2013-03-22 18:30:00
1:00 AM,78.8,50.0,36,29.77,2.5,East,8.1,-,N/A,,Haze,80,2013-03-22 19:30:00
2:00 AM,77.0,50.0,39,29.77,2.5,East,8.1,-,N/A,,Haze,80,2013-03-22 20:30:00
3:00 AM,77.0,50.0,39,29.77,2.5,East,6.9,-,N/A,,Haze,80,2013-03-22 21:30:00
4:00 AM,77.0,50.0,39,29.74,2.5,ENE,8.1,-,N/A,,Haze,70,2013-03-22 22:30:00
5:00 AM,77.0,50.0,39,29.77,2.5,ENE,8.1,-,N/A,,Haze,70,2013-03-22 23:30:00
5:30 AM,75,50,30,29.71,2,East,6.9,,,,Haze,90,2013-03-23 00:00:00
6:00 AM,75.2,50.0,41,29.77,2.5,East,6.9,-,N/A,,Haze,80,2013-03-23 00:30:00
8:00 AM,78.8,50.0,36,29.83,2.2,East,5.8,-,N/A,,Haze,80,2013-03-23 02:30:00
8:30 AM,81,52,26,29.76,2,East,6.9,,,,Haze,90,2013-03-23 03:00:00
8:30 AM,78.8,50.0,36,29.83,2.5,East,6.9,-,N/A,,Haze,80,2013-03-23 03:00:00
9:00 AM,80.6,50.0,34,29.86,2.5,ESE,5.8,-,N/A,,Haze,110,2013-03-23 03:30:00
9:30 AM,82.4,50.0,32,29.86,2.5,SE,4.6,-,N/A,,Haze,140,2013-03-23 04:00:00
10:00 AM,84.2,50.0,30,29.86,2.5,SE,4.6,-,N/A,,Haze,140,2013-03-23 04:30:00
11:00 AM,84.2,48.2,29,29.86,3.1,Variable,3.5,-,N/A,,Haze,0,2013-03-23 05:30:00
11:30 AM,89,50,17,29.76,2,Calm,Calm,,,,Haze,,2013-03-23 06:00:00
11:30 AM,87.8,50.0,27,29.86,3.1,Calm,Calm,-,N/A,,Haze,0,2013-03-23 06:00:00
12:00 PM,89.6,46.4,22,29.86,3.1,Variable,4.6,-,N/A,,Haze,0,2013-03-23 06:30:00
12:30 PM,89.6,46.4,22,29.83,3.1,Variable,6.9,-,N/A,,Haze,0,2013-03-23 07:00:00
1:00 PM,89.6,44.6,21,29.83,3.1,Variable,5.8,-,N/A,,Haze,0,2013-03-23 07:30:00
2:00 PM,91.4,37.4,15,29.80,3.7,Variable,5.8,-,N/A,,Scattered Clouds,0,2013-03-23 08:30:00
2:30 PM,95,40,8,29.68,2,West,6.9,,,,Partly Cloudy,270,2013-03-23 09:00:00
2:30 PM,93.2,41.0,16,29.77,3.7,West,6.9,-,N/A,,Scattered Clouds,260,2013-03-23 09:00:00
3:00 PM,91.4,41.0,17,29.77,3.7,SE,3.5,-,N/A,,Scattered Clouds,140,2013-03-23 09:30:00
3:30 PM,91.4,39.2,16,29.77,3.7,Variable,4.6,-,N/A,,Scattered Clouds,0,2013-03-23 10:00:00
4:00 PM,93.2,39.2,15,29.74,3.7,SSW,5.8,-,N/A,,Scattered Clouds,200,2013-03-23 10:30:00
4:30 PM,93.2,37.4,14,29.74,3.7,Calm,Calm,-,N/A,,Scattered Clouds,0,2013-03-23 11:00:00
5:00 PM,91.4,37.4,15,29.74,3.7,WSW,9.2,-,N/A,,Partly Cloudy,250,2013-03-23 11:30:00
5:30 PM,92,40,9,29.65,2,SSW,5.8,,,,,200,2013-03-23 12:00:00
6:00 PM,91.4,39.2,16,29.74,3.1,SSW,5.8,-,N/A,,Haze,210,2013-03-23 12:30:00
7:00 PM,87.8,41.0,19,29.77,2.2,Variable,1.2,-,N/A,,Haze,0,2013-03-23 13:30:00
8:30 PM,84,43,14,29.71,1,Calm,Calm,,,,Haze,,2013-03-23 15:00:00
9:00 PM,84.2,39.2,20,29.80,1.9,Variable,1.2,-,N/A,,Haze,0,2013-03-23 15:30:00
10:00 PM,78.8,41.0,26,29.83,1.9,WSW,6.9,-,N/A,,Haze,250,2013-03-23 16:30:00
11:00 PM,77.0,41.0,28,29.83,1.9,Calm,Calm,-,N/A,,Haze,0,2013-03-23 17:30:00
11:30 PM,77,46,23,29.76,1,Calm,Calm,,,Rain-Thunderstorm,Thunderstorms and Rain,,2013-03-23 18:00:00